Location: Unspecified
(41.5000°N, 0.0000°E)
Time: 11:11:29
(UTC+00:00)

Vanguard 3 - Pass Details

Date: 22 June 2019
Orbit: 507 x 3264 km, 33.4° (Epoch: 20 July)

Event Time Altitude Azimuth Distance (km) Brightness Sun altitude
Rises 14:16:14 0° 264° (W) 5,080 11.7 56.7°
Reaches altitude 10° 14:20:30 10° 258° (WSW) 3,604 11.2 56.0°
Maximum altitude 14:28:12 40° 193° (SSW) 1,397 9.3 54.6°
Drops below altitude 10° 14:32:57 10° 124° (ESE) 2,208 9.3 53.8°
Sets 14:34:59 0° 115° (ESE) 2,939 9.8 53.4°
